Weather History for LGAD - March, 2013

Change the Weather History Date:

Thursday, March 21, 2013

  Actual Average Record
Temperature  
Mean Temperature 61 °F -  
Max Temperature 70 °F 62 °F 70 °F (2013)
Min Temperature 52 °F 46 °F 33 °F (2015)
Degree Days  
Heating Degree Days 4    
Growing Degree Days 11 (Base 50)    
Moisture  
Dew Point 50 °F    
Average Humidity 71    
Maximum Humidity 88    
Minimum Humidity 50    
Precipitation  
Precipitation 0.00 in - - ()
Sea Level Pressure  
Sea Level Pressure 29.65 in    
Wind  
Wind Speed 5 mph ()    
Max Wind Speed 20 mph    
Max Gust Speed 24 mph    
Visibility 5.9 miles    
Events      
Averages and records for this station are not official NWS values.
T = Trace of Precipitation, MM = Missing Value Source: Averaged Metar Reports

Daily Weather History Graph

Daily Weather History Graph

Search for Another Location

Airport or City:

Trip Planner

Search our weather history database for the weather conditions in past years. The results will help you decide how hot, cold, wet, or windy it might be!

Date:

Astronomy

Mar. 21, 2013 Rise Set
Actual Time 6:36 AM EET 6:47 PM EET
Civil Twilight 6:10 AM EET 7:13 PM EET
Nautical Twilight 5:40 AM EET 7:44 PM EET
Astronomical Twilight 5:08 AM EET 8:15 PM EET
Moon 1:05 PM EET (3/21) 2:40 AM EET (3/21)
Length of Visible Light 13h 03m
Length of Day
12h 10m
Waxing Gibbous, 66% of the Moon is Illuminated
Mar 21
Waxing Gibbous
Mar 27
Full
Apr 3
Last Quarter
Apr 10
New
Apr 18
First Quarter

Hourly Weather History & Observations

Time (EET) Temp. Dew Point Humidity Pressure Visibility Wind Dir Wind Speed Gust Speed Precip Events Conditions
12:20 AM 55.4 °F 50.0 °F 82% 29.68 in 6.2 mi Calm Calm - N/A   Mostly Cloudy
12:50 AM 55.4 °F 50.0 °F 82% 29.68 in 6.2 mi Calm Calm - N/A   Mostly Cloudy
1:20 AM 55.4 °F 50.0 °F 82% 29.65 in 6.2 mi Calm Calm - N/A   Mostly Cloudy
1:50 AM 55.4 °F 50.0 °F 82% 29.68 in 6.2 mi Calm Calm - N/A   Mostly Cloudy
2:00 AM 55 °F 50 °F 77% 29.68 in 6 mi Calm Calm - -   Partly Cloudy
2:20 AM 53.6 °F 50.0 °F 88% 29.68 in 6.2 mi WNW 4.6 mph - N/A   Mostly Cloudy
2:50 AM 55.4 °F 48.2 °F 77% 29.65 in 6.2 mi Calm Calm - N/A   Scattered Clouds
3:50 AM 51.8 °F 48.2 °F 88% 29.65 in 6.2 mi Calm Calm - N/A   Scattered Clouds
4:20 AM 53.6 °F 48.2 °F 82% 29.62 in 6.2 mi Calm Calm - N/A   Scattered Clouds
4:50 AM 60.8 °F 48.2 °F 63% 29.62 in 6.2 mi South 4.6 mph - N/A   Scattered Clouds
5:20 AM 53.6 °F 48.2 °F 82% 29.65 in 6.2 mi Calm Calm - N/A   Scattered Clouds
5:50 AM 57.2 °F 48.2 °F 72% 29.62 in 6.2 mi Calm Calm - N/A   Scattered Clouds
6:20 AM 59.0 °F 50.0 °F 72% 29.65 in 6.2 mi SSW 4.6 mph - N/A   Scattered Clouds
6:50 AM 53.6 °F 48.2 °F 82% 29.62 in 6.2 mi NNE 4.6 mph - N/A   Scattered Clouds
7:20 AM 53.6 °F 48.2 °F 82% 29.62 in 6.2 mi NNW 5.8 mph - N/A   Mostly Cloudy
7:50 AM 53.6 °F 50.0 °F 88% 29.62 in 6.2 mi NNE 5.8 mph - N/A   Mostly Cloudy
8:00 AM 54 °F 49 °F 79% 29.64 in 6 mi NNE 5.8 mph - -   Partly Cloudy
8:20 AM 55.4 °F 50.0 °F 82% 29.62 in 5.0 mi Calm Calm - N/A   Mostly Cloudy
8:50 AM 57.2 °F 51.8 °F 82% 29.65 in 5.0 mi Calm Calm - N/A   Mostly Cloudy
9:20 AM 59.0 °F 53.6 °F 82% 29.65 in 5.0 mi Calm Calm - N/A   Mostly Cloudy
9:50 AM 60.8 °F 53.6 °F 77% 29.62 in 5.0 mi Calm Calm - N/A   Mostly Cloudy
10:20 AM 66.2 °F 55.4 °F 68% 29.62 in 5.0 mi Calm Calm - N/A   Mostly Cloudy
10:50 AM 66.2 °F 53.6 °F 64% 29.62 in 5.0 mi NW 4.6 mph - N/A   Scattered Clouds
11:20 AM 69.8 °F 53.6 °F 56% 29.62 in 5.0 mi SSE 6.9 mph - N/A   Scattered Clouds
11:50 AM 69.8 °F 53.6 °F 56% 29.62 in 6.2 mi South 10.4 mph - N/A   Scattered Clouds
12:20 PM 68.0 °F 53.6 °F 60% 29.62 in 6.2 mi South 17.3 mph - N/A   Scattered Clouds
12:50 PM 68.0 °F 53.6 °F 60% 29.62 in 6.2 mi South 19.6 mph - N/A   Scattered Clouds
1:20 PM 69.8 °F 53.6 °F 56% 29.62 in 6.2 mi South 19.6 mph - N/A   Scattered Clouds
1:50 PM 68.0 °F 53.6 °F 60% 29.62 in 6.2 mi South 16.1 mph - N/A   Scattered Clouds
2:00 PM 68 °F 54 °F 50% 29.63 in 6 mi South 16.1 mph - -   Partly Cloudy
2:20 PM 68.0 °F 55.4 °F 64% 29.62 in 6.2 mi South 13.8 mph - N/A   Scattered Clouds
2:50 PM 68.0 °F 55.4 °F 64% 29.62 in 6.2 mi South 11.5 mph - N/A   Scattered Clouds
3:20 PM 68.0 °F 55.4 °F 64% 29.62 in 6.2 mi South 10.4 mph - N/A   Mostly Cloudy
3:50 PM 64.4 °F 55.4 °F 73% 29.62 in 5.0 mi SW 8.1 mph - N/A   Overcast
4:20 PM 60.8 °F 53.6 °F 77% 29.62 in 5.0 mi West 13.8 mph - N/A   Overcast
4:50 PM 60.8 °F 53.6 °F 77% 29.62 in 5.0 mi WNW 6.9 mph - N/A   Overcast
5:20 PM 60.8 °F 53.6 °F 77% 29.62 in 5.0 mi West 9.2 mph - N/A   Overcast
5:50 PM 59.0 °F 51.8 °F 77% 29.62 in 5.0 mi West 11.5 mph - N/A   Overcast
6:20 PM 59.0 °F 51.8 °F 77% 29.62 in 6.2 mi WNW 4.6 mph - N/A   Mostly Cloudy
6:50 PM 59.0 °F 51.8 °F 77% 29.62 in 6.2 mi WNW 6.9 mph - N/A   Mostly Cloudy
7:20 PM 59.0 °F 51.8 °F 77% 29.62 in 6.2 mi NW 9.2 mph - N/A   Mostly Cloudy
8:00 PM 59 °F 52 °F 70% 29.69 in 6 mi NW 17.3 mph - -   Partly Cloudy
8:20 PM 59.0 °F 51.8 °F 77% 29.68 in 6.2 mi NW 17.3 mph - N/A   Mostly Cloudy
8:50 PM 57.2 °F 42.8 °F 59% 29.71 in 6.2 mi NW 18.4 mph - N/A   Mostly Cloudy
9:20 PM 57.2 °F 39.2 °F 51% 29.71 in 6.2 mi NW 18.4 mph - N/A   Mostly Cloudy
9:50 PM 57.2 °F 41.0 °F 55% 29.74 in 6.2 mi NW 17.3 mph - N/A   Mostly Cloudy
10:20 PM 55.4 °F 41.0 °F 58% 29.74 in 6.2 mi NW 18.4 mph - N/A   Mostly Cloudy
10:50 PM 55.4 °F 42.8 °F 63% 29.74 in 6.2 mi NW 18.4 mph - N/A   Scattered Clouds
11:20 PM 55.4 °F 42.8 °F 63% 29.74 in 6.2 mi NW 12.7 mph 24.2 mph N/A   Scattered Clouds
11:50 PM 55.4 °F 39.2 °F 54% 29.77 in 6.2 mi NW 12.7 mph 24.2 mph N/A   Scattered Clouds